User: anonymous   Login
Location: Ay?beleni
(36.6500°N, 30.3000°E)
Time: 19:06:54
(UTC+00:00)
Language:

COSMOS 2455 - Orbit

View from above orbital plane
View from above orbital plane
View from above satellite
View from above satellite

Ground track
Ground track

The orbit data is extracted from the following two-line orbital elements,

1 36095U 09063A   20185.30813119 -.00000073  00000-0  16122-5 0  9991
2 36095  67.1476 140.5983 0008228 287.7233  72.2953 13.96768840541569
Epoch (UTC): 03 July 2020 07:23:42
Eccentricity: 0.0008228
inclination: 67.1476°
perigee height: 899 km
apogee height: 911 km
right ascension of ascending node: 140.5983°
argument of perigee: 287.7233°
revolutions per day: 13.96768840
mean anomaly at epoch: 72.2953°
orbit number at epoch: 54156

The dashed part of the orbit path shows where the satellite is in the earth's shadow,  

DLR